Simultaneous Nadir Overpasses (SNOs) Predictions

Prediction of SNOs between GOES-16 and AQUA Satellite Orbit:

Table of predicted SNOs for the next 14.0 days since TLE Epoch: 9/14/2018
Index Date Time (GOES-16) GOES-16 Lat,Lon AQUA Lat,Lon Distance(km) Time Diff (sec)
1 09/15/2018 06:17:42 -0.01, -75.22 -0.91, -70.98 481.64 80
2 09/15/2018 18:39:06 0.02, -75.22 -0.18, -76.18 108.83 80
3 09/17/2018 18:29:32 0.02, -75.24 0.43, -73.21 230.71 80
4 09/18/2018 06:50:47 -0.02, -75.26 0.65, -78.36 353.82 80
5 09/20/2018 06:38:34 -0.03, -75.29 -0.03, -75.41 13.88 80
6 09/22/2018 06:23:40 -0.03, -75.32 -0.65, -72.44 327.32 80
7 09/22/2018 18:47:44 0.03, -75.32 -0.45, -77.64 262.70 80
8 09/24/2018 18:32:50 0.03, -75.37 0.17, -74.67 79.06 80
9 09/26/2018 18:20:36 0.03, -75.41 0.79, -71.70 421.33 80
10 09/27/2018 06:44:31 -0.03, -75.43 0.27, -76.86 162.45 80




NCC Satellite Simultaneous Nadir Overpasses (SNOs) Prediction Service
